When you browse on this site, cookies collect data to enhance your experience and personalize the content and advertising you see.
Visit our Privacy Policy to learn more. By continuing to use the site, you agree to this use of cookies and data.
  • Em Portugal
  • Lista de países
  • Para 7 dias
  • Temperatura da água
  • Mapa do tempo
  • Widgets de tempo
  • user-avatar
    Iniciar Sessão

    Previsão horária em Miszkolc

    Hoje, 22 Setembro, Domingo

    Tempo Temperatura Precipitação Vento Pressão Humidade
    00:00 +10°C° 0 mm 0 m/s 754 mmHg 59%
    01:00 +9°C° 0 mm 0 m/s 754 mmHg 60%
    02:00 +9°C° 0 mm 0 m/s 753 mmHg 61%
    03:00 +9°C° 0 mm 0 m/s 753 mmHg 63%
    04:00 +8°C° 0 mm 0 m/s 753 mmHg 64%
    05:00 +9°C° 0 mm 0 m/s 753 mmHg 62%
    06:00 +10°C° 0 mm 0 m/s 753 mmHg 59%
    07:00 +11°C° 0 mm 0 m/s 753 mmHg 56%
    08:00 +14°C° 0 mm 1 m/s 753 mmHg 50%
    09:00 +16°C° 0 mm 1 m/s 753 mmHg 44%
    10:00 +19°C° 0 mm 1 m/s 752 mmHg 38%
    11:00 +20°C° 0 mm 1 m/s 752 mmHg 36%
    12:00 +20°C° 0 mm 2 m/s 751 mmHg 33%
    13:00 +21°C° 0 mm 2 m/s 750 mmHg 31%
    14:00 +21°C° 0 mm 2 m/s 750 mmHg 32%
    15:00 +21°C° 0 mm 2 m/s 749 mmHg 32%
    16:00 +22°C° 0 mm 1 m/s 749 mmHg 33%
    17:00 +20°C° 0 mm 1 m/s 749 mmHg 37%
    18:00 +18°C° 0 mm 1 m/s 749 mmHg 42%
    19:00 +15°C° 0 mm 1 m/s 749 mmHg 46%
    20:00 +14°C° 0 mm 1 m/s 749 mmHg 47%
    21:00 +14°C° 0 mm 1 m/s 749 mmHg 48%
    22:00 +14°C° 0 mm 1 m/s 748 mmHg 49%
    23:00 +14°C° 0 mm 1 m/s 748 mmHg 50%

    Amanhã, 23 Setembro, Segunda-feira

    Tempo Temperatura Precipitação Vento Pressão Humidade
    00:00 +14°C° 0 mm 1 m/s 748 mmHg 50%
    01:00 +13°C° 0 mm 1 m/s 748 mmHg 51%
    02:00 +13°C° 0 mm 1 m/s 748 mmHg 52%
    03:00 +13°C° 0 mm 1 m/s 747 mmHg 52%
    04:00 +13°C° 0 mm 1 m/s 747 mmHg 53%
    05:00 +13°C° 0.1 mm 1 m/s 747 mmHg 55%
    06:00 +14°C° 0.1 mm 1 m/s 747 mmHg 56%
    07:00 +14°C° 0.1 mm 1 m/s 747 mmHg 57%
    08:00 +15°C° 0.3 mm 1 m/s 747 mmHg 58%
    09:00 +15°C° 0.3 mm 1 m/s 748 mmHg 59%
    10:00 +15°C° 0.3 mm 0 m/s 748 mmHg 60%
    11:00 +18°C° 0.1 mm 1 m/s 748 mmHg 59%
    12:00 +19°C° 0.1 mm 1 m/s 747 mmHg 59%
    13:00 +19°C° 0.1 mm 2 m/s 747 mmHg 59%
    14:00 +18°C° 0 mm 2 m/s 747 mmHg 64%
    15:00 +18°C° 0 mm 1 m/s 747 mmHg 68%
    16:00 +18°C° 0 mm 1 m/s 747 mmHg 73%
    17:00 +16°C° 0 mm 1 m/s 747 mmHg 78%
    18:00 +14°C° 0 mm 1 m/s 747 mmHg 84%
    19:00 +12°C° 0 mm 0 m/s 747 mmHg 90%
    20:00 +12°C° 0 mm 0 m/s 747 mmHg 89%
    21:00 +13°C° 0 mm 1 m/s 747 mmHg 89%
    22:00 +13°C° 0 mm 1 m/s 747 mmHg 88%
    23:00 +13°C° 0 mm 1 m/s 747 mmHg 86%

    Depois de amanhã, 24 Setembro, Terça-feira

    Tempo Temperatura Precipitação Vento Pressão Humidade
    00:00 +13°C° 0 mm 1 m/s 747 mmHg 84%
    01:00 +13°C° 0 mm 1 m/s 747 mmHg 83%
    02:00 +12°C° 0 mm 1 m/s 747 mmHg 80%
    03:00 +12°C° 0 mm 1 m/s 746 mmHg 77%
    04:00 +12°C° 0 mm 1 m/s 746 mmHg 75%
    05:00 +13°C° 0 mm 1 m/s 746 mmHg 71%
    06:00 +14°C° 0 mm 1 m/s 746 mmHg 68%
    07:00 +14°C° 0 mm 1 m/s 746 mmHg 64%
    08:00 +16°C° 0 mm 1 m/s 746 mmHg 57%
    09:00 +20°C° 0 mm 1 m/s 746 mmHg 50%
    10:00 +22°C° 0 mm 1 m/s 746 mmHg 43%
    11:00 +23°C° 0 mm 2 m/s 745 mmHg 40%
    12:00 +24°C° 0 mm 2 m/s 745 mmHg 37%
    13:00 +25°C° 0 mm 2 m/s 745 mmHg 34%
    14:00 +25°C° 0 mm 2 m/s 744 mmHg 36%
    15:00 +25°C° 0 mm 2 m/s 744 mmHg 38%
    16:00 +24°C° 0 mm 1 m/s 744 mmHg 40%
    17:00 +23°C° 0 mm 1 m/s 744 mmHg 44%
    18:00 +21°C° 0 mm 1 m/s 744 mmHg 49%
    19:00 +19°C° 0 mm 1 m/s 744 mmHg 53%
    20:00 +19°C° 0 mm 1 m/s 744 mmHg 54%
    21:00 +19°C° 0 mm 1 m/s 744 mmHg 55%
    22:00 +18°C° 0 mm 1 m/s 744 mmHg 57%
    23:00 +17°C° 0 mm 2 m/s 744 mmHg 60%

    25 Setembro, Quarta-feira

    Tempo Temperatura Precipitação Vento Pressão Humidade
    00:00 +17°C° 0 mm 2 m/s 744 mmHg 63%
    01:00 +16°C° 0 mm 2 m/s 744 mmHg 66%
    02:00 +16°C° 0.1 mm 2 m/s 744 mmHg 72%
    03:00 +15°C° 0.1 mm 2 m/s 744 mmHg 78%
    04:00 +15°C° 0.1 mm 2 m/s 744 mmHg 83%
    05:00 +15°C° 1.2 mm 1 m/s 744 mmHg 87%
    06:00 +15°C° 1.2 mm 1 m/s 744 mmHg 90%
    07:00 +14°C° 1.2 mm 1 m/s 744 mmHg 94%
    08:00 +15°C° 0.3 mm 1 m/s 744 mmHg 90%
    09:00 +16°C° 0.3 mm 1 m/s 744 mmHg 86%
    10:00 +18°C° 0.3 mm 1 m/s 744 mmHg 81%
    11:00 +18°C° 0 mm 2 m/s 744 mmHg 77%
    12:00 +19°C° 0 mm 2 m/s 744 mmHg 73%
    13:00 +20°C° 0 mm 2 m/s 743 mmHg 68%
    14:00 +20°C° 0.1 mm 2 m/s 743 mmHg 69%
    15:00 +19°C° 0.1 mm 2 m/s 743 mmHg 70%
    16:00 +19°C° 0.1 mm 2 m/s 743 mmHg 71%
    17:00 +18°C° 0.3 mm 2 m/s 743 mmHg 76%
    18:00 +17°C° 0.3 mm 2 m/s 743 mmHg 81%
    19:00 +16°C° 0.3 mm 2 m/s 743 mmHg 86%
    20:00 +16°C° 0.2 mm 2 m/s 744 mmHg 87%
    21:00 +16°C° 0.2 mm 2 m/s 744 mmHg 88%
    22:00 +15°C° 0.2 mm 2 m/s 744 mmHg 89%
    23:00 +15°C° 0 mm 1 m/s 744 mmHg 89%

    26 Setembro, Quinta-feira

    Tempo Temperatura Precipitação Vento Pressão Humidade
    00:00 +15°C° 0 mm 1 m/s 744 mmHg 89%
    01:00 +15°C° 0 mm 1 m/s 744 mmHg 89%
    02:00 +15°C° 0 mm 1 m/s 744 mmHg 90%
    03:00 +15°C° 0 mm 1 m/s 744 mmHg 90%
    04:00 +15°C° 0 mm 1 m/s 744 mmHg 90%
    05:00 +14°C° 0.5 mm 1 m/s 744 mmHg 91%
    06:00 +14°C° 0.5 mm 1 m/s 745 mmHg 92%
    07:00 +14°C° 0.5 mm 1 m/s 745 mmHg 94%
    08:00 +15°C° 0.2 mm 1 m/s 745 mmHg 88%
    09:00 +16°C° 0.2 mm 1 m/s 745 mmHg 82%
    10:00 +18°C° 0.2 mm 1 m/s 746 mmHg 77%
    11:00 +19°C° 0.3 mm 1 m/s 746 mmHg 73%
    12:00 +20°C° 0.3 mm 1 m/s 746 mmHg 69%
    13:00 +20°C° 0.3 mm 1 m/s 745 mmHg 65%
    14:00 +20°C° 0.4 mm 1 m/s 746 mmHg 66%
    15:00 +20°C° 0.4 mm 1 m/s 746 mmHg 68%
    16:00 +20°C° 0.4 mm 1 m/s 746 mmHg 69%
    17:00 +18°C° 0.1 mm 1 m/s 746 mmHg 75%
    18:00 +16°C° 0.1 mm 1 m/s 746 mmHg 81%
    19:00 +13°C° 0.1 mm 0 m/s 747 mmHg 88%
    20:00 +13°C° 0 mm 0 m/s 747 mmHg 88%
    21:00 +13°C° 0 mm 0 m/s 747 mmHg 89%
    22:00 +12°C° 0 mm 0 m/s 747 mmHg 89%
    23:00 +12°C° 0 mm 0 m/s 748 mmHg 90%

    27 Setembro, Sexta-feira

    Tempo Temperatura Precipitação Vento Pressão Humidade
    00:00 +12°C° 0 mm 0 m/s 748 mmHg 90%
    01:00 +12°C° 0 mm 0 m/s 748 mmHg 90%
    02:00 +11°C° 0 mm 0 m/s 748 mmHg 91%
    03:00 +11°C° 0 mm 0 m/s 748 mmHg 91%
    04:00 +11°C° 0 mm 0 m/s 748 mmHg 91%
    05:00 +12°C° 0 mm 0 m/s 748 mmHg 89%
    06:00 +12°C° 0 mm 0 m/s 748 mmHg 87%
    07:00 +13°C° 0 mm 0 m/s 748 mmHg 85%
    08:00 +16°C° 0 mm 1 m/s 749 mmHg 78%
    09:00 +18°C° 0 mm 1 m/s 749 mmHg 71%
    10:00 +19°C° 0 mm 2 m/s 749 mmHg 65%
    11:00 +20°C° 0 mm 2 m/s 749 mmHg 60%
    12:00 +21°C° 0 mm 3 m/s 748 mmHg 56%
    13:00 +24°C° 0 mm 3 m/s 748 mmHg 51%
    14:00 +23°C° 0 mm 2 m/s 748 mmHg 53%
    15:00 +23°C° 0 mm 2 m/s 748 mmHg 54%
    16:00 +23°C° 0 mm 1 m/s 748 mmHg 56%
    17:00 +22°C° 0 mm 1 m/s 748 mmHg 59%
    18:00 +20°C° 0 mm 1 m/s 748 mmHg 61%
    19:00 +19°C° 0 mm 1 m/s 748 mmHg 64%
    20:00 +19°C° 0 mm 1 m/s 748 mmHg 65%
    21:00 +18°C° 0 mm 1 m/s 748 mmHg 66%
    22:00 +18°C° 0 mm 1 m/s 749 mmHg 67%
    23:00 +18°C° 0 mm 1 m/s 748 mmHg 68%
    Mostrar mais